| time (UTC) | temp F | wind direction | speed MPH | gust MPH | rain 1hr in | rain 24hr in | rain mn in | humidity % | barometer mb |
| 20260831193518 | 80 | 48 | 2.0 | 8.0 | 0.00 | 0.02 | 0.02 | 76 | 1019.2 |
| 20260831192538 | 80 | 327 | 1.0 | 4.0 | 0.00 | 0.02 | 0.02 | 76 | 1019.2 |
| 20260831191538 | 81 | 43 | 1.0 | 5.0 | 0.00 | 0.02 | 0.02 | 75 | 1019.1 |
| 20260831190519 | 82 | 63 | 1.0 | 4.0 | 0.00 | 0.02 | 0.02 | 73 | 1019.3 |
| 20260831185516 | 83 | 35 | 1.0 | 4.0 | 0.00 | 0.02 | 0.02 | 72 | 1019.4 |
| 20260831184519 | 83 | 311 | 1.0 | 3.0 | 0.00 | 0.02 | 0.02 | 71 | 1019.4 |
| 20260831183516 | 82 | 333 | 1.0 | 3.0 | 0.00 | 0.02 | 0.02 | 71 | 1019.4 |
| 20260831182536 | 81 | 38 | 1.0 | 5.0 | 0.00 | 0.02 | 0.02 | 72 | 1019.5 |
| 20260831181517 | 80 | 39 | 1.0 | 4.0 | 0.00 | 0.02 | 0.02 | 73 | 1019.6 |
| 20260831180517 | 80 | 58 | 1.0 | 3.0 | 0.00 | 0.02 | 0.02 | 74 | 1019.6 |
| 20260831175516 | 80 | 58 | 1.0 | 3.0 | 0.00 | 0.02 | 0.02 | 75 | 1019.7 |
| 20260831174517 | 80 | 56 | 1.0 | 4.0 | 0.00 | 0.02 | 0.02 | 75 | 1019.7 |
| 20260831173517 | 80 | 16 | 1.0 | 4.0 | 0.00 | 0.02 | 0.02 | 76 | 1019.7 |
| 20260831172517 | 81 | 53 | 1.0 | 3.0 | 0.00 | 0.02 | 0.02 | 75 | 1019.6 |
| 20260831171517 | 81 | 59 | 0.0 | 2.0 | 0.00 | 0.02 | 0.02 | 74 | 1019.7 |
| 20260831170518 | 81 | 17 | 1.0 | 4.0 | 0.00 | 0.02 | 0.02 | 74 | 1019.7 |
| 20260831165518 | 81 | 53 | 0.0 | 3.0 | 0.00 | 0.02 | 0.02 | 73 | 1019.8 |
| 20260831164518 | 82 | 47 | 1.0 | 4.0 | 0.00 | 0.02 | 0.02 | 72 | 1019.8 |
| 20260831163518 | 82 | 69 | 1.0 | 3.0 | 0.00 | 0.02 | 0.02 | 72 | 1019.9 |
| 20260831162518 | 82 | 84 | 1.0 | 4.0 | 0.00 | 0.02 | 0.02 | 71 | 1020.0 |
| 20260831161518 | 81 | 64 | 1.0 | 4.0 | 0.00 | 0.02 | 0.02 | 74 | 1020.0 |
| 20260831160516 | 81 | 324 | 1.0 | 3.0 | 0.00 | 0.02 | 0.02 | 74 | 1019.9 |
| 20260831155518 | 81 | 49 | 1.0 | 4.0 | 0.00 | 0.02 | 0.02 | 75 | 1020.1 |
| 20260831154519 | 82 | 50 | 1.0 | 4.0 | 0.00 | 0.02 | 0.02 | 72 | 1020.1 |
| 20260831153516 | 82 | 263 | 1.0 | 3.0 | 0.00 | 0.02 | 0.02 | 71 | 1020.1 |
| 20260831152516 | 82 | 56 | 1.0 | 3.0 | 0.00 | 0.02 | 0.02 | 72 | 1020.1 |
| 20260831151517 | 82 | 49 | 1.0 | 4.0 | 0.00 | 0.02 | 0.02 | 72 | 1020.2 |
| 20260831150516 | 82 | 47 | 2.0 | 5.0 | 0.00 | 0.02 | 0.02 | 72 | 1020.2 |
| 20260831145517 | 83 | 44 | 1.0 | 4.0 | 0.00 | 0.02 | 0.02 | 70 | 1020.0 |
| 20260831144517 | 82 | 65 | 1.0 | 3.0 | 0.00 | 0.02 | 0.02 | 71 | 1019.9 |
| 20260831143517 | 82 | 46 | 2.0 | 5.0 | 0.00 | 0.02 | 0.02 | 72 | 1019.8 |
| 20260831142517 | 81 | 41 | 2.0 | 6.0 | 0.00 | 0.02 | 0.02 | 74 | 1019.7 |
| 20260831141517 | 80 | 47 | 1.0 | 4.0 | 0.00 | 0.02 | 0.02 | 75 | 1019.8 |
| 20260831140517 | 81 | 56 | 1.0 | 4.0 | 0.00 | 0.02 | 0.02 | 74 | 1019.9 |
| 20260831135518 | 80 | 54 | 1.0 | 3.0 | 0.00 | 0.02 | 0.02 | 76 | 1019.9 |
| 20260831134517 | 79 | 58 | 1.0 | 3.0 | 0.00 | 0.02 | 0.02 | 77 | 1020.0 |
| 20260831133518 | 79 | 44 | 1.0 | 5.0 | 0.00 | 0.02 | 0.02 | 80 | 1020.0 |
| 20260831132518 | 77 | 47 | 1.0 | 3.0 | 0.00 | 0.02 | 0.02 | 83 | 1020.1 |
| 20260831131528 | 77 | 61 | 1.0 | 2.0 | 0.00 | 0.02 | 0.02 | 84 | 1020.1 |
| 20260831130527 | 76 | 98 | 0.0 | 1.0 | 0.00 | 0.02 | 0.02 | 85 | 1020.1 |
| 20260831125527 | 76 | 61 | 0.0 | 0.0 | 0.00 | 0.02 | 0.02 | 86 | 1020.1 |
| 20260831124528 | 76 | 39 | 1.0 | 3.0 | 0.00 | 0.02 | 0.02 | 86 | 1020.0 |
| 20260831123528 | 76 | 37 | 0.0 | 0.0 | 0.00 | 0.02 | 0.02 | 85 | 1019.9 |
| 20260831122528 | 76 | 51 | 1.0 | 2.0 | 0.00 | 0.02 | 0.02 | 85 | 1019.8 |
| 20260831121529 | 75 | 56 | 1.0 | 2.0 | 0.00 | 0.02 | 0.02 | 87 | 1019.8 |
| 20260831120548 | 75 | 66 | 0.0 | 1.0 | 0.00 | 0.02 | 0.02 | 89 | 1019.7 |
| 20260831115528 | 75 | 30 | 0.0 | 1.0 | 0.00 | 0.02 | 0.02 | 90 | 1019.7 |
| 20260831114528 | 75 | 84 | 0.0 | 0.0 | 0.00 | 0.02 | 0.02 | 90 | 1019.6 |
| 20260831113528 | 75 | 0.0 | 0.0 | 0.00 | 0.02 | 0.02 | 90 | 1019.5 | |
| 20260831112549 | 75 | 57 | 0.0 | 1.0 | 0.00 | 0.02 | 0.02 | 90 | 1019.4 |
| 20260831111529 | 75 | 30 | 0.0 | 1.0 | 0.00 | 0.02 | 0.02 | 91 | 1019.5 |
| 20260831110529 | 74 | 0.0 | 0.0 | 0.00 | 0.02 | 0.02 | 90 | 1019.4 | |
| 20260831105529 | 74 | 0.0 | 0.0 | 0.00 | 0.02 | 0.02 | 90 | 1019.3 | |
| 20260831104529 | 74 | 32 | 0.0 | 1.0 | 0.00 | 0.02 | 0.02 | 90 | 1019.2 |
| 20260831103530 | 74 | 0.0 | 0.0 | 0.00 | 0.02 | 0.02 | 90 | 1019.1 | |
| 20260831102530 | 74 | 0.0 | 0.0 | 0.00 | 0.02 | 0.02 | 90 | 1019.0 | |
| 20260831101550 | 74 | 0.0 | 0.0 | 0.00 | 0.02 | 0.02 | 90 | 1018.9 | |
| 20260831100530 | 74 | 0.0 | 0.0 | 0.00 | 0.02 | 0.02 | 90 | 1018.8 | |
| 20260831095530 | 74 | 340 | 0.0 | 0.0 | 0.00 | 0.02 | 0.02 | 90 | 1018.8 |
| 20260831094530 | 74 | 123 | 0.0 | 1.0 | 0.02 | 0.02 | 0.02 | 89 | 1018.8 |
| 20260831093516 | 74 | 0.0 | 0.0 | 0.02 | 0.02 | 0.02 | 89 | 1018.8 | |
| 20260831092516 | 74 | 0.0 | 0.0 | 0.02 | 0.02 | 0.02 | 89 | 1018.7 | |
| 20260831091516 | 75 | 65 | 0.0 | 2.0 | 0.02 | 0.02 | 0.02 | 89 | 1018.7 |
| 20260831090517 | 76 | 43 | 1.0 | 3.0 | 0.02 | 0.02 | 0.02 | 89 | 1018.8 |
| 20260831085516 | 76 | 0.0 | 0.0 | 0.02 | 0.02 | 0.02 | 90 | 1018.7 | |
| 20260831084517 | 76 | 103 | 0.0 | 0.0 | 0.00 | 0.00 | 0.00 | 90 | 1018.6 |
| 20260831083517 | 76 | 0.0 | 0.0 | 0.00 | 0.00 | 0.00 | 90 | 1018.5 | |
| 20260831082517 | 76 | 0.0 | 0.0 | 0.00 | 0.00 | 0.00 | 90 | 1018.6 | |
| 20260831081517 | 76 | 0.0 | 0.0 | 0.00 | 0.00 | 0.00 | 90 | 1018.6 | |
| 20260831080617 | 76 | 178 | 0.0 | 1.0 | 0.00 | 0.00 | 0.00 | 90 | 1018.6 |
| 20260831075537 | 76 | 0.0 | 0.0 | 0.00 | 0.00 | 0.00 | 90 | 1018.7 | |
| 20260831074517 | 76 | 0.0 | 0.0 | 0.00 | 0.00 | 0.00 | 89 | 1018.8 | |
| 20260831073517 | 76 | 0.0 | 0.0 | 0.00 | 0.00 | 0.00 | 89 | 1018.7 | |
| 20260831072518 | 76 | 0.0 | 0.0 | 0.00 | 0.00 | 0.00 | 89 | 1018.7 | |
| 20260831071539 | 76 | 0.0 | 0.0 | 0.00 | 0.00 | 0.00 | 89 | 1018.7 | |
| 20260831070518 | 76 | 0.0 | 0.0 | 0.00 | 0.00 | 0.00 | 88 | 1018.8 | |
| 20260831065516 | 76 | 0 | 0.0 | 0.0 | 0.00 | 0.00 | 0.00 | 88 | 1018.9 |
| 20260831064516 | 76 | 86 | 0.0 | 0.0 | 0.00 | 0.00 | 0.00 | 88 | 1018.9 |
| 20260831063516 | 76 | 0.0 | 0.0 | 0.00 | 0.00 | 0.00 | 88 | 1019.0 | |
| 20260831062516 | 76 | 0.0 | 0.0 | 0.00 | 0.00 | 0.00 | 88 | 1019.0 | |
| 20260831061516 | 76 | 0.0 | 0.0 | 0.00 | 0.00 | 0.00 | 88 | 1019.0 | |
| 20260831060517 | 76 | 20 | 0.0 | 1.0 | 0.00 | 0.00 | 0.00 | 88 | 1019.0 |
| 20260831055517 | 76 | 355 | 0.0 | 1.0 | 0.00 | 0.00 | 0.00 | 87 | 1019.1 |
| 20260831054517 | 76 | 0.0 | 0.0 | 0.00 | 0.00 | 0.00 | 87 | 1019.1 | |
| 20260831053517 | 76 | 334 | 0.0 | 0.0 | 0.00 | 0.00 | 0.00 | 87 | 1019.1 |
| 20260831052517 | 77 | 182 | 0.0 | 1.0 | 0.00 | 0.00 | 0.00 | 87 | 1019.0 |
| 20260831051517 | 77 | 230 | 0.0 | 1.0 | 0.00 | 0.00 | 0.00 | 87 | 1019.0 |
| 20260831050518 | 77 | 215 | 0.0 | 1.0 | 0.00 | 0.00 | 0.00 | 87 | 1019.0 |
| 20260831045518 | 77 | 277 | 0.0 | 2.0 | 0.00 | 0.00 | 0.00 | 87 | 1019.0 |
| 20260831044519 | 76 | 252 | 0.0 | 1.0 | 0.00 | 0.00 | 0.00 | 87 | 1019.0 |
| 20260831043518 | 76 | 16 | 0.0 | 1.0 | 0.00 | 0.00 | 0.00 | 86 | 1019.0 |
| 20260831042518 | 76 | 273 | 0.0 | 0.0 | 0.00 | 0.00 | 0.00 | 86 | 1019.0 |
| 20260831041518 | 76 | 0.0 | 0.0 | 0.00 | 0.00 | 0.00 | 86 | 1019.1 | |
| 20260831040516 | 76 | 305 | 0.0 | 1.0 | 0.00 | 0.00 | 0.00 | 86 | 1019.1 |
| 20260831035516 | 76 | 10 | 0.0 | 1.0 | 0.00 | 0.00 | 0.00 | 86 | 1019.2 |
| 20260831034516 | 76 | 323 | 0.0 | 1.0 | 0.00 | 0.00 | 0.00 | 87 | 1019.4 |
| 20260831033516 | 76 | 188 | 0.0 | 1.0 | 0.00 | 0.00 | 0.00 | 87 | 1019.3 |
| 20260831032516 | 77 | 240 | 0.0 | 0.0 | 0.00 | 0.00 | 0.00 | 86 | 1019.4 |
| 20260831031516 | 77 | 209 | 0.0 | 1.0 | 0.00 | 0.00 | 0.00 | 86 | 1019.5 |
| 20260831030517 | 77 | 331 | 0.0 | 1.0 | 0.00 | 0.00 | 0.00 | 86 | 1019.6 |
| 20260831025517 | 77 | 336 | 0.0 | 1.0 | 0.00 | 0.00 | 0.00 | 85 | 1019.6 |
| 20260831024517 | 77 | 353 | 0.0 | 1.0 | 0.00 | 0.00 | 0.00 | 85 | 1019.7 |
| 20260831023517 | 77 | 255 | 0.0 | 1.0 | 0.00 | 0.00 | 0.00 | 85 | 1019.8 |
| 20260831022518 | 77 | 321 | 0.0 | 1.0 | 0.00 | 0.00 | 0.00 | 85 | 1019.8 |
| 20260831021518 | 77 | 213 | 0.0 | 1.0 | 0.00 | 0.00 | 0.00 | 85 | 1019.8 |
| 20260831020518 | 77 | 170 | 0.0 | 2.0 | 0.00 | 0.00 | 0.00 | 85 | 1019.7 |
| 20260831015518 | 77 | 277 | 0.0 | 2.0 | 0.00 | 0.00 | 0.00 | 84 | 1019.8 |
| 20260831014518 | 77 | 199 | 0.0 | 2.0 | 0.00 | 0.00 | 0.00 | 84 | 1019.8 |
| 20260831013519 | 77 | 212 | 0.0 | 2.0 | 0.00 | 0.00 | 0.00 | 84 | 1020.0 |
| 20260831012519 | 78 | 233 | 0.0 | 2.0 | 0.00 | 0.00 | 0.00 | 83 | 1020.0 |
| 20260831011518 | 78 | 313 | 0.0 | 2.0 | 0.00 | 0.00 | 0.00 | 83 | 1020.0 |
| 20260831010515 | 78 | 221 | 0.0 | 2.0 | 0.00 | 0.00 | 0.00 | 83 | 1019.9 |
| 20260831005536 | 78 | 345 | 0.0 | 1.0 | 0.00 | 0.00 | 0.00 | 82 | 1020.0 |
| 20260831004537 | 78 | 277 | 0.0 | 2.0 | 0.00 | 0.00 | 0.00 | 83 | 1019.8 |
| 20260831003516 | 78 | 232 | 0.0 | 3.0 | 0.00 | 0.00 | 0.00 | 83 | 1019.7 |
| 20260831002516 | 78 | 236 | 0.0 | 3.0 | 0.00 | 0.00 | 0.00 | 83 | 1019.6 |
| 20260831001517 | 78 | 240 | 0.0 | 3.0 | 0.00 | 0.00 | 0.00 | 83 | 1019.6 |
| 20260831000517 | 78 | 246 | 1.0 | 3.0 | 0.00 | 0.00 | 0.00 | 83 | 1019.5 |
| 20260830235517 | 78 | 318 | 1.0 | 2.0 | 0.00 | 0.00 | 0.00 | 83 | 1019.5 |
| 20260830234517 | 78 | 240 | 1.0 | 4.0 | 0.00 | 0.00 | 0.00 | 83 | 1019.5 |
| 20260830233538 | 78 | 237 | 1.0 | 3.0 | 0.00 | 0.00 | 0.00 | 83 | 1019.5 |
| 20260830232518 | 78 | 209 | 1.0 | 3.0 | 0.00 | 0.00 | 0.00 | 82 | 1019.6 |
| 20260830231517 | 78 | 206 | 1.0 | 3.0 | 0.00 | 0.00 | 0.00 | 82 | 1019.7 |
| 20260830230518 | 78 | 233 | 1.0 | 5.0 | 0.00 | 0.00 | 0.00 | 82 | 1019.7 |
| 20260830225518 | 78 | 229 | 1.0 | 3.0 | 0.00 | 0.00 | 0.00 | 81 | 1019.7 |
| 20260830224518 | 78 | 229 | 1.0 | 3.0 | 0.00 | 0.00 | 0.00 | 81 | 1019.6 |
| 20260830223539 | 79 | 274 | 1.0 | 3.0 | 0.00 | 0.00 | 0.00 | 81 | 1019.6 |
| 20260830222518 | 79 | 207 | 1.0 | 4.0 | 0.00 | 0.00 | 0.00 | 80 | 1019.5 |
| 20260830221516 | 79 | 230 | 1.0 | 5.0 | 0.00 | 0.00 | 0.00 | 79 | 1019.4 |
| 20260830220515 | 79 | 213 | 1.0 | 3.0 | 0.00 | 0.00 | 0.00 | 79 | 1019.3 |
| 20260830215616 | 79 | 191 | 1.0 | 4.0 | 0.00 | 0.00 | 0.00 | 78 | 1019.2 |
| 20260830214516 | 80 | 202 | 1.0 | 3.0 | 0.00 | 0.00 | 0.00 | 78 | 1019.3 |
| 20260830213516 | 80 | 177 | 1.0 | 3.0 | 0.00 | 0.00 | 0.00 | 77 | 1019.3 |
| 20260830212516 | 80 | 205 | 1.0 | 4.0 | 0.00 | 0.00 | 0.00 | 76 | 1019.3 |
| 20260830211516 | 80 | 213 | 1.0 | 3.0 | 0.00 | 0.00 | 0.00 | 76 | 1019.3 |
| 20260830210517 | 80 | 184 | 1.0 | 4.0 | 0.00 | 0.00 | 0.00 | 76 | 1019.2 |
| 20260830205517 | 81 | 196 | 1.0 | 4.0 | 0.00 | 0.00 | 0.00 | 76 | 1019.3 |
| 20260830204538 | 81 | 190 | 1.0 | 4.0 | 0.00 | 0.00 | 0.00 | 75 | 1019.3 |
| 20260830203518 | 81 | 217 | 0.0 | 3.0 | 0.00 | 0.00 | 0.00 | 75 | 1019.5 |
| 20260830202517 | 81 | 203 | 1.0 | 4.0 | 0.00 | 0.00 | 0.00 | 75 | 1019.6 |
| 20260830201517 | 81 | 194 | 1.0 | 3.0 | 0.00 | 0.00 | 0.00 | 74 | 1019.7 |
| 20260830200517 | 81 | 227 | 1.0 | 5.0 | 0.00 | 0.00 | 0.00 | 74 | 1019.8 |
| 20260830195518 | 82 | 214 | 1.0 | 4.0 | 0.00 | 0.00 | 0.00 | 73 | 1019.9 |
| 20260830194519 | 82 | 190 | 1.0 | 4.0 | 0.00 | 0.00 | 0.00 | 72 | 1019.9 |